Time,TemperatureF,DewpointF,PressureIn,WindDirection,WindDirectionDegrees,WindSpeedMPH,WindSpeedGustMPH,Humidity,HourlyPrecipIn,Conditions,Clouds,dailyrainin,SolarRadiationWatts/m^2,SoftwareType,DateUTC
2013-04-14 00:03:00,65.0,46.0,-100.00,WNW,283,2.0,7.0,51,0.00,,,0.00,0.000000,,2013-04-14 05:03:00,
2013-04-14 00:12:00,65.0,46.0,-100.00,WNW,283,2.0,7.0,51,0.00,,,0.00,0.000000,,2013-04-14 05:12:00,
2013-04-14 00:22:00,65.0,46.0,-100.00,WNW,283,2.0,7.0,51,0.00,,,0.00,0.000000,,2013-04-14 05:22:00,
2013-04-14 00:32:00,62.0,48.0,-100.00,ENE,72,2.0,7.0,60,0.00,,,0.00,0.000000,,2013-04-14 05:32:00,
2013-04-14 00:52:00,62.0,48.0,-100.00,ENE,72,2.0,7.0,60,0.00,,,0.00,0.000000,,2013-04-14 05:52:00,
2013-04-14 01:02:00,62.0,48.0,-100.00,ENE,72,2.0,7.0,60,0.00,,,0.00,0.000000,,2013-04-14 06:02:00,
2013-04-14 01:12:00,62.0,48.0,-100.00,ENE,72,2.0,7.0,60,0.00,,,0.00,0.000000,,2013-04-14 06:12:00,
2013-04-14 01:22:00,62.0,48.0,-100.00,ENE,72,2.0,7.0,60,0.00,,,0.00,0.000000,,2013-04-14 06:22:00,
2013-04-14 01:32:00,59.0,49.0,-100.00,East,98,0.0,7.0,69,0.00,,,0.00,0.000000,,2013-04-14 06:32:00,
2013-04-14 01:52:00,59.0,49.0,-100.00,East,98,0.0,7.0,69,0.00,,,0.00,0.000000,,2013-04-14 06:52:00,
2013-04-14 02:02:00,59.0,49.0,-100.00,East,98,0.0,7.0,69,0.00,,,0.00,0.000000,,2013-04-14 07:02:00,
2013-04-14 02:12:00,59.0,49.0,-100.00,East,98,0.0,7.0,69,0.00,,,0.00,0.000000,,2013-04-14 07:12:00,
2013-04-14 02:22:00,59.0,49.0,-100.00,East,98,0.0,7.0,69,0.00,,,0.00,0.000000,,2013-04-14 07:22:00,
2013-04-14 02:32:00,63.0,46.0,-100.00,ESE,106,4.0,12.0,54,0.00,,,0.00,0.000000,,2013-04-14 07:32:00,
2013-04-14 02:52:00,63.0,46.0,-100.00,ESE,106,4.0,12.0,54,0.00,,,0.00,0.000000,,2013-04-14 07:52:00,
2013-04-14 03:02:00,63.0,46.0,-100.00,ESE,106,4.0,12.0,54,0.00,,,0.00,0.000000,,2013-04-14 08:02:00,
2013-04-14 03:12:00,63.0,46.0,-100.00,ESE,106,4.0,12.0,54,0.00,,,0.00,0.000000,,2013-04-14 08:12:00,
2013-04-14 03:22:00,63.0,46.0,-100.00,ESE,106,4.0,12.0,54,0.00,,,0.00,0.000000,,2013-04-14 08:22:00,
2013-04-14 03:32:00,59.0,52.0,-100.00,ESE,123,6.0,17.0,77,0.01,,,0.01,0.000000,,2013-04-14 08:32:00,
2013-04-14 03:52:00,59.0,52.0,-100.00,ESE,123,6.0,17.0,77,0.01,,,0.01,0.000000,,2013-04-14 08:52:00,
2013-04-14 04:03:00,59.0,52.0,-100.00,ESE,123,6.0,17.0,77,0.01,,,0.01,0.000000,,2013-04-14 09:03:00,
2013-04-14 04:12:00,59.0,52.0,-100.00,ESE,123,6.0,17.0,77,0.01,,,0.01,0.000000,,2013-04-14 09:12:00,
2013-04-14 04:22:00,59.0,52.0,-100.00,ESE,123,6.0,17.0,77,0.01,,,0.01,0.000000,,2013-04-14 09:22:00,
2013-04-14 04:32:00,58.0,53.0,-100.00,SE,142,3.0,12.0,83,0.00,,,0.01,0.000000,,2013-04-14 09:32:00,
2013-04-14 04:54:00,58.0,53.0,-100.00,SE,142,3.0,12.0,83,0.00,,,0.01,0.000000,,2013-04-14 09:54:00,
2013-04-14 05:03:00,58.0,53.0,-100.00,SE,142,3.0,12.0,83,0.00,,,0.01,0.000000,,2013-04-14 10:03:00,
2013-04-14 05:12:00,58.0,53.0,-100.00,SE,142,3.0,12.0,83,0.00,,,0.01,0.000000,,2013-04-14 10:12:00,
2013-04-14 05:23:00,58.0,53.0,-100.00,SE,142,3.0,12.0,83,0.00,,,0.01,0.000000,,2013-04-14 10:23:00,
2013-04-14 05:32:00,58.0,54.0,-100.00,ESE,123,3.0,8.0,86,0.00,,,0.01,0.000000,,2013-04-14 10:32:00,
2013-04-14 05:52:00,58.0,54.0,-100.00,ESE,123,3.0,8.0,86,0.00,,,0.01,0.000000,,2013-04-14 10:52:00,
2013-04-14 06:02:00,58.0,54.0,-100.00,ESE,123,3.0,8.0,86,0.00,,,0.01,0.000000,,2013-04-14 11:02:00,
2013-04-14 06:12:00,58.0,54.0,-100.00,ESE,123,3.0,8.0,86,0.00,,,0.01,0.000000,,2013-04-14 11:12:00,
2013-04-14 06:22:00,58.0,54.0,-100.00,ESE,123,3.0,8.0,86,0.00,,,0.01,0.000000,,2013-04-14 11:22:00,
2013-04-14 06:32:00,58.0,54.0,-100.00,ENE,68,1.0,7.0,87,0.00,,,0.01,0.000000,,2013-04-14 11:32:00,
2013-04-14 06:53:00,58.0,54.0,-100.00,ENE,68,1.0,7.0,87,0.00,,,0.01,0.000000,,2013-04-14 11:53:00,
2013-04-14 07:02:00,58.0,54.0,-100.00,ENE,68,1.0,7.0,87,0.00,,,0.01,0.000000,,2013-04-14 12:02:00,
2013-04-14 07:12:00,58.0,54.0,-100.00,ENE,68,1.0,7.0,87,0.00,,,0.01,0.000000,,2013-04-14 12:12:00,
2013-04-14 07:22:00,58.0,54.0,-100.00,ENE,68,1.0,7.0,87,0.00,,,0.01,0.000000,,2013-04-14 12:22:00,
2013-04-14 07:32:00,58.0,54.0,-100.00,East,97,1.0,8.0,88,0.00,,,0.01,1.000000,,2013-04-14 12:32:00,
2013-04-14 07:52:00,58.0,54.0,-100.00,East,97,1.0,8.0,88,0.00,,,0.01,1.000000,,2013-04-14 12:52:00,
2013-04-14 08:02:00,58.0,54.0,-100.00,East,97,1.0,8.0,88,0.00,,,0.01,1.000000,,2013-04-14 13:02:00,
2013-04-14 08:12:00,58.0,54.0,-100.00,East,97,1.0,8.0,88,0.00,,,0.01,1.000000,,2013-04-14 13:12:00,
2013-04-14 08:22:00,58.0,54.0,-100.00,East,97,1.0,8.0,88,0.00,,,0.01,1.000000,,2013-04-14 13:22:00,
2013-04-14 08:32:00,59.0,55.0,-100.00,NE,50,0.0,5.0,88,0.00,,,0.01,18.000000,,2013-04-14 13:32:00,
2013-04-14 08:52:00,59.0,55.0,-100.00,NE,50,0.0,5.0,88,0.00,,,0.01,18.000000,,2013-04-14 13:52:00,
2013-04-14 09:02:00,59.0,55.0,-100.00,NE,50,0.0,5.0,88,0.00,,,0.01,18.000000,,2013-04-14 14:02:00,
2013-04-14 09:12:00,59.0,55.0,-100.00,NE,50,0.0,5.0,88,0.00,,,0.01,18.000000,,2013-04-14 14:12:00,
2013-04-14 09:22:00,59.0,55.0,-100.00,NE,50,0.0,5.0,88,0.00,,,0.01,18.000000,,2013-04-14 14:22:00,
2013-04-14 09:32:00,60.0,56.0,-100.00,West,276,2.0,3.0,87,0.00,,,0.01,61.000000,,2013-04-14 14:32:00,
2013-04-14 09:53:00,60.0,56.0,-100.00,West,276,2.0,3.0,87,0.00,,,0.01,61.000000,,2013-04-14 14:53:00,
2013-04-14 10:02:00,60.0,56.0,-100.00,West,276,2.0,3.0,87,0.00,,,0.01,61.000000,,2013-04-14 15:02:00,
2013-04-14 10:12:00,60.0,56.0,-100.00,West,276,2.0,3.0,87,0.00,,,0.01,61.000000,,2013-04-14 15:12:00,
2013-04-14 10:22:00,60.0,56.0,-100.00,West,276,2.0,3.0,87,0.00,,,0.01,61.000000,,2013-04-14 15:22:00,
2013-04-14 10:32:00,64.0,58.0,-100.00,East,92,2.0,5.0,81,0.00,,,0.01,194.000000,,2013-04-14 15:32:00,
2013-04-14 10:53:00,64.0,58.0,-100.00,East,92,2.0,5.0,81,0.00,,,0.01,194.000000,,2013-04-14 15:53:00,
2013-04-14 11:04:00,64.0,58.0,-100.00,East,92,2.0,5.0,81,0.00,,,0.01,194.000000,,2013-04-14 16:04:00,
2013-04-14 11:13:00,64.0,58.0,-100.00,East,92,2.0,5.0,81,0.00,,,0.01,194.000000,,2013-04-14 16:13:00,
2013-04-14 11:22:00,64.0,58.0,-100.00,East,92,2.0,5.0,81,0.00,,,0.01,194.000000,,2013-04-14 16:22:00,
2013-04-14 11:32:00,65.0,59.0,-100.00,South,182,5.0,9.0,80,0.00,,,0.01,254.000000,,2013-04-14 16:32:00,
2013-04-14 11:53:00,65.0,59.0,-100.00,South,182,5.0,9.0,80,0.00,,,0.01,254.000000,,2013-04-14 16:53:00,
2013-04-14 12:02:00,65.0,59.0,-100.00,South,182,5.0,9.0,80,0.00,,,0.01,254.000000,,2013-04-14 17:02:00,
2013-04-14 12:13:00,65.0,59.0,-100.00,South,182,5.0,9.0,80,0.00,,,0.01,254.000000,,2013-04-14 17:13:00,
2013-04-14 12:22:00,65.0,59.0,-100.00,South,182,5.0,9.0,80,0.00,,,0.01,254.000000,,2013-04-14 17:22:00,
2013-04-14 12:32:00,67.0,59.0,-100.00,SE,144,5.0,13.0,76,0.00,,,0.01,365.000000,,2013-04-14 17:32:00,
2013-04-14 12:53:00,67.0,59.0,-100.00,SE,144,5.0,13.0,76,0.00,,,0.01,365.000000,,2013-04-14 17:53:00,
2013-04-14 13:02:00,67.0,59.0,-100.00,SE,144,5.0,13.0,76,0.00,,,0.01,365.000000,,2013-04-14 18:02:00,
2013-04-14 13:12:00,67.0,59.0,-100.00,SE,144,5.0,13.0,76,0.00,,,0.01,365.000000,,2013-04-14 18:12:00,
2013-04-14 13:22:00,67.0,59.0,-100.00,SE,144,5.0,13.0,76,0.00,,,0.01,365.000000,,2013-04-14 18:22:00,
2013-04-14 13:32:00,69.0,59.0,-100.00,South,179,7.0,12.0,71,0.00,,,0.01,424.000000,,2013-04-14 18:32:00,
2013-04-14 13:53:00,69.0,59.0,-100.00,South,179,7.0,12.0,71,0.00,,,0.01,424.000000,,2013-04-14 18:53:00,
2013-04-14 14:03:00,69.0,59.0,-100.00,South,179,7.0,12.0,71,0.00,,,0.01,424.000000,,2013-04-14 19:03:00,
2013-04-14 14:12:00,69.0,59.0,-100.00,South,179,7.0,12.0,71,0.00,,,0.01,424.000000,,2013-04-14 19:12:00,
2013-04-14 14:22:00,69.0,59.0,-100.00,South,179,7.0,12.0,71,0.00,,,0.01,424.000000,,2013-04-14 19:22:00,
2013-04-14 14:32:00,70.0,61.0,-100.00,South,183,6.0,12.0,72,0.00,,,0.01,343.000000,,2013-04-14 19:32:00,
2013-04-14 14:53:00,70.0,61.0,-100.00,South,183,6.0,12.0,72,0.00,,,0.01,343.000000,,2013-04-14 19:53:00,
2013-04-14 15:02:00,70.0,61.0,-100.00,South,183,6.0,12.0,72,0.00,,,0.01,343.000000,,2013-04-14 20:02:00,
2013-04-14 15:13:00,70.0,61.0,-100.00,South,183,6.0,12.0,72,0.00,,,0.01,343.000000,,2013-04-14 20:13:00,
2013-04-14 15:22:00,70.0,61.0,-100.00,South,183,6.0,12.0,72,0.00,,,0.01,343.000000,,2013-04-14 20:22:00,
2013-04-14 15:32:00,75.0,62.0,-100.00,SSW,210,5.0,11.0,65,0.00,,,-99.99,584.000000,,2013-04-14 20:32:00,
2013-04-14 15:52:00,75.0,62.0,-100.00,SSW,210,5.0,11.0,65,0.00,,,-99.99,584.000000,,2013-04-14 20:52:00,
2013-04-14 16:02:00,75.0,62.0,-100.00,SSW,210,5.0,11.0,65,0.00,,,-99.99,584.000000,,2013-04-14 21:02:00,
2013-04-14 16:12:00,75.0,62.0,-100.00,SSW,210,5.0,11.0,65,0.00,,,-99.99,584.000000,,2013-04-14 21:12:00,
2013-04-14 16:23:00,75.0,62.0,-100.00,SSW,210,5.0,11.0,65,0.00,,,-99.99,584.000000,,2013-04-14 21:23:00,
2013-04-14 16:32:00,77.0,61.0,-100.00,SE,138,5.0,12.0,57,0.00,,,0.01,683.000000,,2013-04-14 21:32:00,
2013-04-14 16:53:00,77.0,61.0,-100.00,SE,138,5.0,12.0,57,0.00,,,0.01,683.000000,,2013-04-14 21:53:00,
2013-04-14 17:03:00,77.0,61.0,-100.00,SE,138,5.0,12.0,57,0.00,,,0.01,683.000000,,2013-04-14 22:03:00,
2013-04-14 17:13:00,77.0,61.0,-100.00,SE,138,5.0,12.0,57,0.00,,,0.01,683.000000,,2013-04-14 22:13:00,
2013-04-14 17:23:00,77.0,61.0,-100.00,SE,138,5.0,12.0,57,0.00,,,0.01,683.000000,,2013-04-14 22:23:00,
2013-04-14 17:32:00,76.0,59.0,-100.00,SSE,158,5.0,11.0,55,0.00,,,0.01,455.000000,,2013-04-14 22:32:00,
2013-04-14 17:53:00,76.0,59.0,-100.00,SSE,158,5.0,11.0,55,0.00,,,0.01,455.000000,,2013-04-14 22:53:00,
2013-04-14 18:02:00,76.0,59.0,-100.00,SSE,158,5.0,11.0,55,0.00,,,0.01,455.000000,,2013-04-14 23:02:00,
2013-04-14 18:12:00,76.0,59.0,-100.00,SSE,158,5.0,11.0,55,0.00,,,0.01,455.000000,,2013-04-14 23:12:00,
2013-04-14 18:22:00,76.0,59.0,-100.00,SSE,158,5.0,11.0,55,0.00,,,0.01,455.000000,,2013-04-14 23:22:00,
2013-04-14 18:32:00,75.0,59.0,-100.00,SSE,150,5.0,10.0,57,0.00,,,0.01,294.000000,,2013-04-14 23:32:00,
2013-04-14 18:53:00,75.0,59.0,-100.00,SSE,150,5.0,10.0,57,0.00,,,0.01,294.000000,,2013-04-14 23:53:00,
2013-04-14 19:02:00,75.0,59.0,-100.00,SSE,150,5.0,10.0,57,0.00,,,0.01,294.000000,,2013-04-15 00:02:00,
2013-04-14 19:12:00,75.0,59.0,-100.00,SSE,150,5.0,10.0,57,0.00,,,0.01,294.000000,,2013-04-15 00:12:00,
2013-04-14 19:23:00,75.0,59.0,-100.00,SSE,150,5.0,10.0,57,0.00,,,0.01,294.000000,,2013-04-15 00:23:00,
2013-04-14 19:32:00,71.0,59.0,-100.00,SE,144,2.0,11.0,65,0.00,,,0.01,82.000000,,2013-04-15 00:32:00,
2013-04-14 19:52:00,71.0,59.0,-100.00,SE,144,2.0,11.0,65,0.00,,,0.01,82.000000,,2013-04-15 00:52:00,
2013-04-14 20:02:00,71.0,59.0,-100.00,SE,144,2.0,11.0,65,0.00,,,0.01,82.000000,,2013-04-15 01:02:00,
2013-04-14 20:12:00,71.0,59.0,-100.00,SE,144,2.0,11.0,65,0.00,,,0.01,82.000000,,2013-04-15 01:12:00,
2013-04-14 20:23:00,71.0,59.0,-100.00,SE,144,2.0,11.0,65,0.00,,,0.01,82.000000,,2013-04-15 01:23:00,
2013-04-14 20:32:00,68.0,60.0,-100.00,SE,131,2.0,5.0,75,0.00,,,0.01,1.000000,,2013-04-15 01:32:00,
2013-04-14 20:52:00,68.0,60.0,-100.00,SE,131,2.0,5.0,75,0.00,,,0.01,1.000000,,2013-04-15 01:52:00,
2013-04-14 21:03:00,68.0,60.0,-100.00,SE,131,2.0,5.0,75,0.00,,,0.01,1.000000,,2013-04-15 02:03:00,
2013-04-14 21:12:00,68.0,60.0,-100.00,SE,131,2.0,5.0,75,0.00,,,0.01,1.000000,,2013-04-15 02:12:00,
2013-04-14 21:22:00,68.0,60.0,-100.00,SE,131,2.0,5.0,75,0.00,,,0.01,1.000000,,2013-04-15 02:22:00,
2013-04-14 21:32:00,65.0,59.0,-100.00,SSE,166,2.0,5.0,82,0.00,,,0.01,0.000000,,2013-04-15 02:32:00,
2013-04-14 21:53:00,65.0,59.0,-100.00,SSE,166,2.0,5.0,82,0.00,,,0.01,0.000000,,2013-04-15 02:53:00,
2013-04-14 22:03:00,65.0,59.0,-100.00,SSE,166,2.0,5.0,82,0.00,,,0.01,0.000000,,2013-04-15 03:03:00,
2013-04-14 22:12:00,65.0,59.0,-100.00,SSE,166,2.0,5.0,82,0.00,,,0.01,0.000000,,2013-04-15 03:12:00,
2013-04-14 22:22:00,65.0,59.0,-100.00,SSE,166,2.0,5.0,82,0.00,,,0.01,0.000000,,2013-04-15 03:22:00,
2013-04-14 22:32:00,65.0,61.0,-100.00,SSE,164,2.0,4.0,86,0.00,,,0.01,0.000000,,2013-04-15 03:32:00,
2013-04-14 22:55:00,65.0,61.0,-100.00,SSE,164,2.0,4.0,86,0.00,,,0.01,0.000000,,2013-04-15 03:55:00,
2013-04-14 23:03:00,65.0,61.0,-100.00,SSE,164,2.0,4.0,86,0.00,,,0.01,0.000000,,2013-04-15 04:03:00,
2013-04-14 23:13:00,65.0,61.0,-100.00,SSE,164,2.0,4.0,86,0.00,,,0.01,0.000000,,2013-04-15 04:13:00,
2013-04-14 23:23:00,65.0,61.0,-100.00,SSE,164,2.0,4.0,86,0.00,,,0.01,0.000000,,2013-04-15 04:23:00,
2013-04-14 23:32:00,64.0,60.0,-100.00,South,169,2.0,4.0,88,0.00,,,0.01,0.000000,,2013-04-15 04:32:00,
2013-04-14 23:53:00,64.0,60.0,-100.00,South,169,2.0,4.0,88,0.00,,,0.01,0.000000,,2013-04-15 04:53:00,